CZ-6A DEB, 64641

Orbit data source: Space-Track

CZ-6A DEB, 64641 is space debris in LEO originally from a launch on Tue, 06 Aug 2024 UTC launched from the Taiyaun Space Center, China (TSC). Debris objects in space refer to the collection of defunct objects orbiting the Earth. Examples of debris include non-operational satellites, rocket bodies, and fragments generated from explosions, collisions, or faulty payload assembly.

Loading next visibility...
Identifier
64641, 2024-140AEF
Orbit
LEO
Country
Flag of CNCN / PRC
Related business
Manufacturer
SAST
Mission
Spacecraft
Bus & Motor
Unknown
Mass
Unknown
Launch date (UTC)
2024-08-06 (2 years ago)
Launch vehicle
Unknown
Launch site
Taiyaun Space Center, China (TSC)
Object type
Payload
Rocket body
Debris
Shape & HBR
Unknown shape, 0.1 m
Radar Cross Section
Small (<0.1 m²)

Expand to show TLE details & history
Last TLE update: 2 days ago

TLE from 2 days ago
0 CZ-6A DEB
1 64641U 24140AEF 26169.97856978  .00001046  00000-0  59987-3 0  9997
2 64641  88.8667 265.8550 0115406 245.4646 113.4471 14.05480193 94756
Epoch: 2026-06-18T23:29Z
TLE epoch observation values (Epoch: 2026-06-18T23:29:08.428Z)
Latitude
-0.00005°
Longitude
6.35574°
Altitude
912.032 km
Speed
7.378 km/s
True Right ascension
17h 43m 25s
True Declination
0° 00' 00"
Sunlit
Object was in full shadow at epoch
Visualization orbit readout
Latitude
Unknown
Longitude
Unknown
Altitude
Unknown
Speed
Unknown
Apparent Right ascension
Unknown
Apparent Declination
Unknown
Sunlit
N/A
Visualization observer readout
Local Sidereal Time
10:17:57
Azimuth
Unknown
Elevation
Unknown
Doppler factor
Unknown
Orbital elements
Apogee altitude
955.521 km
Perigee altitude
788.183 km
Semi-major axis
7,249.989 km
Eccentricity
0.01154
Inclination
88.8667°
RAAN
265.855°
Arg. of periapsis
245.4646°
True anomaly
114.65334°
Mean anomaly
113.4471°
Eccentric anomaly
114.05092°
Mean motion
3.51591 °/min
Orbital period
102.39 mins
BSTAR
0.00059987
Loading maneuver chart data...
Computing Atmospheric mass density...
Loading historical data...
Loading historical data...
Loading historical data...
Loading historical data...
Loading historical data...
Loading historical data...
Loading historical data...

Documentation

Showing up to 5 results
|